FW7023 Weather Reports


Display with metric or nautical units.
time (UTC)temp
F
wind
direction
speed
MPH
gust
MPH
rain 1hr
in
rain 24hr
in
rain mn
in
humidity
%
barometer
mb
20260906163746 95 169 0.0 0.0 0.00 0.00 0.00 56 1015.1
20260906163242 95 140 0.0 0.0 0.00 0.00 0.00 56 1015.0
20260906162739 95 178 1.0 1.0 0.00 0.00 0.00 54 1015.3
20260906162234 94 157 0.0 1.0 0.00 0.00 0.00 57 1015.0
20260906161733 93 152 1.0 1.0 0.00 0.00 0.00 58 1015.0
20260906161233 94 90 1.0 2.0 0.00 0.00 0.00 57 1015.0
20260906160732 94 164 0.0 0.0 0.00 0.00 0.00 58 1015.1
20260906160226 94 120 1.0 1.0 0.00 0.00 0.00 57 1014.9
20260906155723 93 139 0.0 1.0 0.00 0.00 0.00 58 1014.9
20260906155218 93 146 0.0 1.0 0.00 0.00 0.00 58 1015.2
20260906154714 93 171 0.0 1.0 0.00 0.00 0.00 61 1015.2
20260906154209 92 177 1.0 1.0 0.00 0.00 0.00 59 1015.1
20260906153707 92 160 0.0 0.0 0.00 0.00 0.00 60 1015.1
20260906153202 91 151 1.0 1.0 0.00 0.00 0.00 61 1015.0
20260906152657 91 171 0.0 1.0 0.00 0.00 0.00 62 1015.1
20260906152151 90 171 1.0 1.0 0.00 0.00 0.00 62 1014.9
20260906151645 90 153 0.0 0.0 0.00 0.00 0.00 62 1015.0
20260906151142 89 154 1.0 1.0 0.00 0.00 0.00 63 1015.0
20260906150636 89 147 0.0 0.0 0.00 0.00 0.00 65 1015.0
20260906150132 88 140 1.0 1.0 0.00 0.00 0.00 66 1015.0
20260906145631 87 150 0.0 1.0 0.00 0.00 0.00 66 1015.0
20260906145125 88 101 1.0 1.0 0.00 0.00 0.00 66 1015.2
20260906144620 88 167 0.0 0.0 0.00 0.00 0.00 66 1014.8
20260906144115 87 137 0.0 1.0 0.00 0.00 0.00 68 1014.8
20260906143615 86 156 0.0 1.0 0.00 0.00 0.00 69 1015.2
20260906143112 85 152 0.0 0.0 0.00 0.00 0.00 71 1015.1
20260906142611 85 120 1.0 1.0 0.00 0.00 0.00 71 1014.9
20260906142106 84 102 1.0 1.0 0.00 0.00 0.00 73 1014.9
20260906141605 84 159 1.0 1.0 0.00 0.00 0.00 73 1015.0
20260906141101 83 144 0.0 1.0 0.00 0.00 0.00 75 1015.1
20260906140559 82 90 1.0 1.0 0.00 0.00 0.00 77 1015.2
20260906140054 81 129 0.0 0.0 0.00 0.00 0.00 80 1015.1
20260906135551 80 131 2.0 2.0 0.00 0.00 0.00 81 1015.1
20260906135048 80 145 1.0 1.0 0.00 0.00 0.00 81 1015.0
20260906134543 79 130 1.0 2.0 0.00 0.00 0.00 82 1015.0
20260906134038 79 121 1.0 1.0 0.00 0.00 0.00 83 1015.1
20260906133533 78 149 0.0 1.0 0.00 0.00 0.00 84 1014.8
20260906133029 78 154 0.0 1.0 0.00 0.00 0.00 84 1014.9
20260906132524 78 143 1.0 1.0 0.00 0.00 0.00 84 1015.1
20260906132019 77 147 0.0 0.0 0.00 0.00 0.00 86 1014.6
20260906131514 77 152 0.0 0.0 0.00 0.00 0.00 87 1014.8
20260906131010 76 139 1.0 1.0 0.00 0.00 0.00 87 1014.6
20260906130509 76 132 1.0 2.0 0.00 0.00 0.00 88 1014.8
20260906130004 76 151 0.0 1.0 0.00 0.00 0.00 89 1014.9
20260906125502 75 152 0.0 0.0 0.00 0.00 0.00 91 1014.5
20260906125001 74 154 0.0 0.0 0.00 0.00 0.00 93 1014.5
20260906124457 74 151 0.0 0.0 0.00 0.00 0.00 93 1014.5
20260906123951 74 151 0.0 0.0 0.00 0.00 0.00 94 1014.2
20260906123451 73 160 0.0 0.0 0.00 0.00 0.00 94 1014.3
20260906122950 73 160 0.0 0.0 0.00 0.00 0.00 94 1014.3
20260906122445 73 160 0.0 0.0 0.00 0.00 0.00 94 1014.4
20260906121942 73 160 0.0 0.0 0.00 0.00 0.00 93 1014.3
20260906121438 73 155 0.0 0.0 0.00 0.00 0.00 93 1014.1
20260906120934 73 155 0.0 0.0 0.00 0.00 0.00 93 1014.1
20260906120429 73 154 0.0 0.0 0.00 0.00 0.00 93 1014.0
20260906115926 73 153 0.0 0.0 0.00 0.00 0.00 93 1014.2
20260906115421 73 151 0.0 0.0 0.00 0.00 0.00 93 1014.0
20260906114920 73 158 0.0 0.0 0.00 0.00 0.00 93 1014.0
20260906114415 73 158 0.0 0.0 0.00 0.00 0.00 93 1013.9
20260906113911 73 167 0.0 0.0 0.00 0.00 0.00 93 1013.8
20260906113409 73 159 0.0 0.0 0.00 0.00 0.00 92 1013.7
20260906112905 73 156 0.0 0.0 0.00 0.00 0.00 92 1013.7
20260906112401 74 155 0.0 0.0 0.00 0.00 0.00 92 1013.6
20260906111855 73 161 0.0 0.0 0.00 0.00 0.00 92 1013.4
20260906111355 73 161 0.0 0.0 0.00 0.00 0.00 92 1013.4
20260906110850 73 161 0.0 0.0 0.00 0.00 0.00 92 1013.6
20260906110346 74 161 0.0 0.0 0.00 0.00 0.00 92 1013.5
20260906105845 74 161 0.0 0.0 0.00 0.00 0.00 92 1013.6
20260906105341 74 161 0.0 0.0 0.00 0.00 0.00 92 1013.5
20260906104836 74 161 0.0 0.0 0.00 0.00 0.00 92 1013.5
20260906104335 74 163 0.0 0.0 0.00 0.00 0.00 92 1013.6
20260906103833 74 163 0.0 0.0 0.00 0.00 0.00 92 1013.7
20260906103332 74 158 0.0 0.0 0.00 0.00 0.00 92 1013.6
20260906102828 74 156 0.0 0.0 0.00 0.00 0.00 92 1013.5
20260906102327 74 158 0.0 0.0 0.00 0.00 0.00 92 1013.4
20260906101822 74 153 0.0 0.0 0.00 0.00 0.00 91 1013.6
20260906101317 74 153 0.0 0.0 0.00 0.00 0.00 91 1013.4
20260906100813 74 153 0.0 0.0 0.00 0.00 0.00 91 1013.6
20260906100312 74 153 0.0 0.0 0.00 0.00 0.00 91 1013.5
20260906095807 74 158 0.0 0.0 0.00 0.00 0.00 91 1013.5
20260906095305 74 162 0.0 0.0 0.00 0.00 0.00 91 1013.4
20260906094802 74 163 0.0 0.0 0.00 0.00 0.00 91 1013.1
20260906094257 74 158 0.0 0.0 0.00 0.00 0.00 91 1013.4
20260906093753 75 157 0.0 0.0 0.00 0.00 0.00 90 1013.5
20260906093249 74 157 0.0 0.0 0.00 0.00 0.00 91 1013.3
20260906092743 75 156 0.0 0.0 0.00 0.00 0.00 90 1013.5
20260906092238 75 158 0.0 0.0 0.00 0.00 0.00 90 1013.1
20260906091734 75 162 0.0 0.0 0.00 0.00 0.00 89 1013.2
20260906091230 75 157 0.0 0.0 0.00 0.00 0.00 89 1013.1
20260906090726 75 159 0.0 0.0 0.00 0.00 0.00 89 1013.1
20260906090225 75 152 0.0 0.0 0.00 0.00 0.00 89 1013.3
20260906085724 75 152 0.0 0.0 0.00 0.00 0.00 89 1013.0
20260906085223 75 173 0.0 0.0 0.00 0.00 0.00 89 1013.2
20260906084718 75 160 0.0 0.0 0.00 0.00 0.00 89 1013.0
20260906084213 75 171 0.0 0.0 0.00 0.00 0.00 89 1012.7
20260906083708 75 151 0.0 0.0 0.00 0.00 0.00 89 1012.9
20260906083203 75 143 0.0 0.0 0.00 0.00 0.00 89 1013.1
20260906082658 75 168 0.0 0.0 0.00 0.00 0.00 89 1013.1
20260906082153 75 128 0.0 0.0 0.00 0.00 0.00 88 1013.0
20260906081649 75 155 0.0 0.0 0.00 0.00 0.00 88 1012.8
20260906081144 76 159 0.0 0.0 0.00 0.00 0.00 88 1012.8
20260906080641 76 155 0.0 0.0 0.00 0.00 0.00 88 1013.1
20260906080137 76 156 0.0 0.0 0.00 0.00 0.00 88 1012.9
20260906075636 76 156 0.0 0.0 0.00 0.00 0.00 88 1013.0
20260906075131 76 156 0.0 0.0 0.00 0.00 0.00 88 1012.6
20260906074626 76 160 0.0 0.0 0.00 0.00 0.00 88 1012.8
20260906074125 76 160 0.0 0.0 0.00 0.00 0.00 88 1012.6
20260906073620 76 159 0.0 0.0 0.00 0.00 0.00 88 1012.7
20260906073115 77 159 0.0 0.0 0.00 0.00 0.00 88 1012.9
20260906072610 77 160 0.0 0.0 0.00 0.00 0.00 88 1012.7
20260906072106 77 160 0.0 0.0 0.00 0.00 0.00 88 1012.7
20260906071603 77 160 0.0 0.0 0.00 0.00 0.00 88 1012.7
20260906071057 77 161 0.0 0.0 0.00 0.00 0.00 88 1012.7
20260906070554 77 155 0.0 0.0 0.00 0.00 0.00 88 1012.9
20260906070049 77 166 0.0 0.0 0.00 0.00 0.00 88 1012.8
20260906065548 77 135 0.0 0.0 0.00 0.00 0.00 88 1013.2
20260906065044 77 177 0.0 0.0 0.00 0.00 0.00 88 1013.1
20260906064539 77 174 0.0 0.0 0.00 0.00 0.00 87 1013.3
20260906064029 77 157 0.0 0.0 0.00 0.00 0.00 88 1013.3
20260906063524 77 153 0.0 0.0 0.00 0.00 0.00 87 1013.2
20260906063020 77 153 0.0 0.0 0.00 0.00 0.00 87 1013.0
20260906062515 77 146 0.0 0.0 0.00 0.00 0.00 86 1013.3
20260906062009 77 162 0.0 0.0 0.00 0.00 0.00 85 1013.2
20260906061505 77 164 0.0 0.0 0.00 0.00 0.00 85 1013.2
20260906060959 77 162 0.0 0.0 0.00 0.00 0.00 85 1013.2
20260906060456 77 162 0.0 0.0 0.00 0.00 0.00 85 1013.1
20260906055953 77 159 0.0 0.0 0.00 0.00 0.00 85 1013.2
20260906055448 77 161 0.0 0.0 0.00 0.00 0.00 84 1013.2
20260906054944 78 163 0.0 0.0 0.00 0.00 0.00 85 1013.3
20260906054443 78 161 0.0 0.0 0.00 0.00 0.00 84 1013.3
20260906053939 78 159 0.0 0.0 0.00 0.00 0.00 84 1013.4
20260906053436 78 159 0.0 0.0 0.00 0.00 0.00 84 1013.2
20260906052931 78 158 0.0 0.0 0.00 0.00 0.00 83 1013.3
20260906052427 78 156 0.0 0.0 0.00 0.00 0.00 83 1013.4
20260906051923 78 158 0.0 0.0 0.00 0.00 0.00 84 1013.2
20260906051418 78 165 0.0 0.0 0.00 0.00 0.00 83 1013.3
20260906050914 78 163 0.0 0.0 0.00 0.00 0.00 83 1013.3
20260906050414 78 163 0.0 0.0 0.00 0.00 0.00 83 1013.3
20260906045913 79 163 0.0 0.0 0.00 0.00 0.00 82 1013.2
20260906045412 79 163 0.0 0.0 0.00 0.00 0.00 82 1013.4
20260906044908 79 163 0.0 0.0 0.00 0.00 0.00 82 1013.2
20260906044403 79 163 0.0 0.0 0.00 0.00 0.00 82 1013.2
20260906043859 79 163 0.0 0.0 0.00 0.00 0.00 81 1013.3
20260906043354 79 164 0.0 0.0 0.00 0.00 0.00 81 1013.4
20260906042849 79 164 0.0 0.0 0.00 0.00 0.00 80 1013.2
20260906042348 80 161 0.0 0.0 0.00 0.00 0.00 80 1013.0
20260906041844 80 160 0.0 0.0 0.00 0.00 0.00 80 1013.0
20260906041339 80 162 0.0 0.0 0.00 0.00 0.00 79 1013.1
20260906040834 80 162 0.0 0.0 0.00 0.00 0.00 79 1013.1
20260906040329 80 162 0.0 0.0 0.00 0.00 0.00 78 1013.1
20260906035824 80 167 0.0 0.0 0.00 0.00 0.00 78 1012.8
20260906035319 80 162 0.0 0.0 0.00 0.00 0.00 78 1013.0
20260906034815 81 162 0.0 0.0 0.00 0.00 0.00 78 1013.1
20260906034315 81 162 0.0 0.0 0.00 0.00 0.00 77 1012.9
20260906033811 81 164 0.0 0.0 0.00 0.00 0.00 77 1012.7
20260906033309 81 164 0.0 0.0 0.00 0.00 0.00 77 1012.6
20260906032807 81 164 0.0 0.0 0.00 0.00 0.00 77 1012.8
20260906032305 81 165 0.0 0.0 0.00 0.00 0.00 76 1012.6
20260906031757 81 165 0.0 0.0 0.00 0.00 0.00 75 1012.7
20260906031253 82 168 0.0 0.0 0.00 0.00 0.00 74 1012.7
20260906030752 82 163 0.0 0.0 0.00 0.00 0.00 74 1012.7
20260906030248 82 163 0.0 0.0 0.00 0.00 0.00 74 1012.5
20260906025747 82 160 0.0 0.0 0.00 0.00 0.00 73 1012.4
20260906025241 83 160 0.0 0.0 0.00 0.00 0.00 73 1012.6
20260906024740 83 162 0.0 0.0 0.00 0.00 0.00 72 1012.4
20260906024239 83 165 0.0 0.0 0.00 0.00 0.00 72 1012.3
20260906023735 83 164 0.0 0.0 0.00 0.00 0.00 71 1012.1
20260906023230 84 165 0.0 0.0 0.00 0.00 0.00 70 1012.2
20260906022726 84 162 0.0 0.0 0.00 0.00 0.00 70 1012.2
20260906022221 84 162 0.0 0.0 0.00 0.00 0.00 70 1012.0
20260906021717 84 156 0.0 0.0 0.00 0.00 0.00 69 1012.0
20260906021216 84 161 0.0 0.0 0.00 0.00 0.00 69 1012.0
20260906020711 85 165 0.0 0.0 0.00 0.00 0.00 69 1011.9
20260906020205 85 163 0.0 0.0 0.00 0.00 0.00 68 1011.7
20260906015700 85 164 0.0 0.0 0.00 0.00 0.00 68 1011.4
20260906015159 86 163 0.0 0.0 0.00 0.00 0.00 66 1011.6
20260906014659 86 163 0.0 0.0 0.00 0.00 0.00 66 1011.6
20260906014154 86 157 0.0 0.0 0.00 0.00 0.00 65 1011.7
20260906013644 86 153 0.0 0.0 0.00 0.00 0.00 66 1011.6
20260906013140 86 169 1.0 1.0 0.00 0.00 0.00 65 1011.4
20260906012639 86 162 0.0 0.0 0.00 0.00 0.00 65 1011.4
20260906012129 86 165 0.0 0.0 0.00 0.00 0.00 66 1011.5
20260906011624 87 161 0.0 0.0 0.00 0.00 0.00 65 1011.5
20260906011124 87 162 0.0 0.0 0.00 0.00 0.00 65 1011.6
20260906010620 88 167 0.0 0.0 0.00 0.00 0.00 63 1011.5
20260906010116 88 151 0.0 0.0 0.00 0.00 0.00 62 1011.4
20260906005610 88 161 0.0 0.0 0.00 0.00 0.00 62 1011.4
20260906005109 88 157 0.0 0.0 0.00 0.00 0.00 62 1011.4
20260906004608 88 163 0.0 0.0 0.00 0.00 0.00 62 1011.1
20260906004103 89 167 0.0 0.0 0.00 0.00 0.00 61 1011.1
20260906003558 89 169 0.0 1.0 0.00 0.00 0.00 60 1011.2
20260906003055 90 162 0.0 0.0 0.00 0.00 0.00 60 1011.1
20260906002555 91 156 0.0 0.0 0.00 0.00 0.00 58 1011.2
20260906002049 91 149 0.0 0.0 0.00 0.00 0.00 57 1011.4
20260906001545 92 159 0.0 0.0 0.00 0.00 0.00 57 1011.4
20260906001039 92 154 0.0 0.0 0.00 0.00 0.00 56 1011.5
20260906000535 93 160 0.0 0.0 0.00 0.00 0.00 55 1011.3
20260906000030 94 167 0.0 1.0 0.00 0.00 0.00 54 1011.2
20260905235529 95 155 0.0 0.0 0.00 0.00 0.00 51 1011.2
20260905235024 96 145 0.0 0.0 0.00 0.00 0.00 47 1011.2
20260905234515 96 160 0.0 0.0 0.00 0.00 0.00 47 1011.1
20260905234015 96 161 0.0 1.0 0.00 0.00 0.00 47 1011.2
20260905233510 96 132 0.0 1.0 0.00 0.00 0.00 47 1011.2
20260905233009 96 154 0.0 0.0 0.00 0.00 0.00 47 1011.0
20260905232505 97 152 0.0 0.0 0.00 0.00 0.00 46 1011.2
20260905232000 97 175 1.0 2.0 0.00 0.00 0.00 45 1011.1
20260905231455 98 147 0.0 0.0 0.00 0.00 0.00 45 1011.1
20260905230952 98 110 1.0 1.0 0.00 0.00 0.00 44 1010.9
20260905230451 98 168 2.0 3.0 0.00 0.00 0.00 43 1011.2
20260905225948 98 159 0.0 0.0 0.00 0.00 0.00 44 1011.1
20260905225444 98 160 0.0 0.0 0.00 0.00 0.00 44 1011.1
20260905224938 98 149 0.0 0.0 0.00 0.00 0.00 45 1011.0
20260905224429 98 185 2.0 2.0 0.00 0.00 0.00 44 1010.7
20260905223928 98 190 0.0 0.0 0.00 0.00 0.00 45 1011.0
20260905223426 98 156 0.0 0.0 0.00 0.00 0.00 45 1010.9
20260905222921 98 164 0.0 0.0 0.00 0.00 0.00 46 1010.9
20260905222420 99 108 1.0 1.0 0.00 0.00 0.00 43 1011.0
20260905221916 99 161 0.0 1.0 0.00 0.00 0.00 43 1010.9
20260905221412 100 123 1.0 2.0 0.00 0.00 0.00 43 1011.3
20260905220908 99 192 2.0 2.0 0.00 0.00 0.00 43 1011.2
20260905220404 99 122 2.0 2.0 0.00 0.00 0.00 44 1011.3
20260905215903 98 159 0.0 0.0 0.00 0.00 0.00 45 1011.3
20260905215359 98 97 1.0 1.0 0.00 0.00 0.00 44 1011.5
20260905214855 98 173 0.0 0.0 0.00 0.00 0.00 45 1011.6
20260905214350 98 123 0.0 1.0 0.00 0.00 0.00 45 1011.5
20260905213845 98 140 1.0 1.0 0.00 0.00 0.00 45 1011.7
20260905213341 99 84 3.0 3.0 0.00 0.00 0.00 44 1011.7
20260905212836 99 152 2.0 2.0 0.00 0.00 0.00 44 1012.1
20260905212335 99 171 1.0 1.0 0.00 0.00 0.00 46 1011.9
20260905211830 98 171 0.0 0.0 0.00 0.00 0.00 46 1011.9
20260905211326 98 60 3.0 3.0 0.00 0.00 0.00 46 1011.8
20260905210822 98 61 2.0 3.0 0.00 0.00 0.00 46 1012.1
20260905210322 98 129 2.0 2.0 0.00 0.00 0.00 45 1012.0
20260905205821 97 134 1.0 2.0 0.00 0.00 0.00 46 1012.0
20260905205315 98 75 4.0 5.0 0.00 0.00 0.00 46 1011.9
20260905204815 98 120 2.0 2.0 0.00 0.00 0.00 47 1012.1
20260905204311 98 146 1.0 1.0 0.00 0.00 0.00 47 1012.1
20260905203810 98 58 1.0 1.0 0.00 0.00 0.00 47 1012.3
20260905203306 98 75 2.0 5.0 0.00 0.00 0.00 46 1012.0
20260905202801 97 149 0.0 1.0 0.00 0.00 0.00 47 1012.2
20260905202256 97 141 1.0 1.0 0.00 0.00 0.00 48 1012.3
20260905201751 96 152 2.0 2.0 0.00 0.00 0.00 48 1012.6
20260905201246 96 129 1.0 1.0 0.00 0.00 0.00 49 1012.6
20260905200741 97 147 0.0 0.0 0.00 0.00 0.00 48 1012.6
20260905200237 97 117 2.0 2.0 0.00 0.00 0.00 47 1012.7
20260905195735 98 161 1.0 1.0 0.00 0.00 0.00 46 1012.5
20260905195230 98 90 1.0 2.0 0.00 0.00 0.00 44 1012.7
20260905194726 98 60 2.0 2.0 0.00 0.00 0.00 42 1012.6
20260905194225 100 96 1.0 1.0 0.00 0.00 0.00 42 1012.8
20260905193719 100 161 0.0 0.0 0.00 0.00 0.00 41 1012.9
20260905193214 100 104 1.0 1.0 0.00 0.00 0.00 40 1012.6
20260905192710 101 122 2.0 2.0 0.00 0.00 0.00 41 1013.0
20260905192206 101 171 0.0 0.0 0.00 0.00 0.00 39 1013.1
20260905191705 100 170 0.0 1.0 0.00 0.00 0.00 43 1013.1
20260905191203 100 160 0.0 0.0 0.00 0.00 0.00 43 1013.2
20260905190702 101 102 1.0 1.0 0.00 0.00 0.00 42 1013.0
20260905190201 101 186 2.0 2.0 0.00 0.00 0.00 40 1013.1
20260905185700 101 168 0.0 0.0 0.00 0.00 0.00 39 1013.4
20260905185155 103 175 0.0 0.0 0.00 0.00 0.00 38 1013.4
20260905184655 103 174 1.0 1.0 0.00 0.00 0.00 37 1013.2
20260905184154 101 175 0.0 0.0 0.00 0.00 0.00 40 1013.2
20260905183648 100 175 0.0 0.0 0.00 0.00 0.00 39 1013.4
20260905183143 100 166 0.0 0.0 0.00 0.00 0.00 41 1013.4
20260905182642 100 169 0.0 0.0 0.00 0.00 0.00 42 1013.6
20260905182142 100 151 1.0 1.0 0.00 0.00 0.00 41 1013.5
20260905181638 100 172 0.0 0.0 0.00 0.00 0.00 42 1013.7
20260905181137 100 173 1.0 2.0 0.00 0.00 0.00 41 1013.6
20260905180632 98 181 0.0 0.0 0.00 0.00 0.00 44 1013.6
20260905180127 98 132 1.0 1.0 0.00 0.00 0.00 44 1013.9
20260905175626 99 149 0.0 0.0 0.00 0.00 0.00 45 1013.9
20260905175122 99 150 1.0 1.0 0.00 0.00 0.00 45 1014.1
20260905174617 99 138 0.0 0.0 0.00 0.00 0.00 44 1013.8
20260905174112 100 175 0.0 0.0 0.00 0.00 0.00 41 1014.1
20260905173609 100 169 0.0 0.0 0.00 0.00 0.00 42 1014.1
20260905173104 100 182 1.0 2.0 0.00 0.00 0.00 40 1014.3
20260905172603 99 210 1.0 2.0 0.00 0.00 0.00 42 1014.3
20260905172058 98 177 1.0 1.0 0.00 0.00 0.00 44 1014.3
20260905171554 98 199 1.0 2.0 0.00 0.00 0.00 44 1014.5
20260905171050 98 192 1.0 1.0 0.00 0.00 0.00 46 1014.6
20260905170547 98 189 0.0 0.0 0.00 0.00 0.00 45 1014.5
20260905170041 98 168 0.0 0.0 0.00 0.00 0.00 48 1014.6
20260905165536 98 165 0.0 0.0 0.00 0.00 0.00 48 1014.6
20260905165031 98 169 0.0 0.0 0.00 0.00 0.00 47 1014.6
20260905164526 97 171 0.0 0.0 0.00 0.00 0.00 49 1014.8
20260905164021 95 169 0.0 1.0 0.00 0.00 0.00 50 1014.6